Location: NCO
(38.4404°N, 77.1340°W)
Time: 07:57:06
(UTC-04:00)

Envisat - Visible Passes

Search period start: 23 April 2017 00:00
Search period end: 03 May 2017 00:00
Orbit: 764 x 766 km, 98.2° (Epoch: 21 April)

Date Brightness Start Highest point End Pass type
(mag) Time Alt. Az. Time Alt. Az. Time Alt. Az.
23 Apr 3.0 21:02:48 12° SSE 21:07:27 69° ENE 21:12:32 10° N visible
23 Apr 5.6 22:44:55 10° WSW 22:46:56 12° W 22:48:57 10° WNW visible
24 Apr 3.9 20:26:33 10° SE 20:30:57 31° ENE 20:35:22 10° N visible
24 Apr 4.7 22:05:46 11° SSW 22:09:55 29° W 22:14:17 10° NW visible
25 Apr 3.3 21:28:35 13° S 21:33:04 66° WSW 21:38:08 10° NNW visible
26 Apr 3.2 20:51:30 10° SSE 20:56:26 54° ENE 21:01:23 10° N visible
26 Apr 5.5 22:32:41 10° SW 22:35:44 16° W 22:38:49 10° NW visible
27 Apr 4.3 21:54:21 11° SSW 21:58:47 36° W 22:03:27 10° NNW visible
28 Apr 3.0 21:17:09 11° SSE 21:21:59 85° WSW 21:27:06 10° NNW visible
29 Apr 3.5 20:40:39 10° SE 20:45:25 42° ENE 20:50:11 10° N visible
29 Apr 5.2 22:20:51 10° SW 22:24:35 20° W 22:28:19 10° NW visible
30 Apr 3.9 21:42:56 11° S 21:47:40 46° W 21:52:33 10° NNW visible
01 May 2.9 21:05:53 10° SSE 21:10:56 76° ENE 21:16:02 10° N visible
01 May 5.7 22:49:12 10° WSW 22:50:28 11° W 22:51:45 10° WNW visible
02 May 3.8 20:29:54 10° SE 20:34:25 34° ENE 20:38:57 10° N visible
02 May 4.8 22:09:13 10° SSW 22:13:25 26° W 22:17:39 10° NW visible
